JCSAT-16 (41729 NORAD) Tracking and Keplerian Element Data

This shows tracking and keplerian element data for the satellite.

Feedback or suggestion? Click here.




ElementValue
Catalog41729
NameJCSAT-16
Epoch Orbit705
Epoch Day195.73746866
Epoch Year2018
RAAN69.4891
Inclination0.0119
Eccentricity0.0001762
Argument of Perigee18.009
Mean Anonmoly272.508
Mean Motion1.0027109
Decay Rate-1.09E-06
L11 41729U 16050A 18195.73746866 -.00000109 00000-0 00000+0 0 9996
L22 41729 0.0119 69.4891 0001762 18.0090 272.5080 1.00271090 7053

Live tracking and technical data element details for JCSAT-16 (NORAD 41729). JCSAT-16 can be tracked NOW for your location showing map with azimuth and elevation plus other details from your city location.

Track the satellite on the map from your city or location and see movement details for azimuth, elevation, latitude, longitude, range, height, and movement on the map or in text.







IsCatalogInMostPopularTable: catalog: 41729, numindb: 70
Update: records affected: 1



GetName: 41729 JCSAT-16

Hit Count: updated at: Sun, 15 Jul 2018 23:13:31 GMT